Location: Unspecified
(0.0000°N, 0.0000°E)
Time: 14:35:56
(UTC+01:00)

Envisat - Visible Passes

Search period start: 19 November 2018 00:00
Search period end: 29 November 2018 00:00
Orbit: 764 x 766 km, 98.2° (Epoch: 19 November)

Date Brightness Start Highest point End Pass type
(mag) Time Alt. Az. Time Alt. Az. Time Alt. Az.
19 Nov 3.2 20:30:37 10° S 20:35:40 70° WSW 20:40:42 10° NNW visible
20 Nov 3.3 19:54:17 10° SSE 19:59:01 40° ENE 20:03:45 10° N visible
20 Nov 6.0 21:36:14 10° WSW 21:37:45 11° WSW 21:39:15 10° W visible
21 Nov 4.5 19:19:45 10° ESE 19:22:24 14° ENE 19:25:02 10° NE visible
21 Nov 4.6 20:56:37 10° SSW 21:01:08 33° WSW 21:05:39 10° NW visible
22 Nov 2.9 20:19:24 10° SSE 20:24:30 86° E 20:29:34 10° N visible
23 Nov 3.7 19:43:28 10° SE 19:47:52 30° ENE 19:52:14 10° NNE visible
23 Nov 5.7 21:23:37 10° SW 21:26:36 16° WSW 21:29:35 10° WNW visible
24 Nov 4.0 20:45:10 10° S 20:49:59 44° WSW 20:54:47 10° NNW visible
25 Nov 2.9 20:08:19 10° SSE 20:13:21 63° ENE 20:18:21 10° N visible
26 Nov 4.1 19:32:50 10° SE 19:36:42 22° ENE 19:40:33 10° NNE visible
26 Nov 5.3 21:11:39 10° SSW 21:15:26 21° WSW 21:19:15 10° NW visible
27 Nov 3.4 20:33:49 10° S 20:38:49 61° WSW 20:43:49 10° NNW visible
28 Nov 3.2 19:57:20 10° SSE 20:02:11 46° ENE 20:07:01 10° N visible
